GW1476 Weather Reports


time (UTC)temp
F
wind
direction
speed
knots
gust
knots
rain 1hr
in
rain 24hr
in
rain mn
in
humidity
%
barometer
mb
20260510203333 81 180 3.5 3.5 0.00 0.00 0.00 54 1016.2
20260510202745 81 203 1.7 2.6 0.00 0.00 0.00 54 1016.2
20260510202136 80 0 1.7 5.2 0.00 0.00 0.00 54 1016.5
20260510200912 81 113 1.7 4.3 0.00 0.00 0.00 54 1016.5
20260510200339 80 158 2.6 5.2 0.00 0.00 0.00 53 1016.5
20260510195720 80 90 1.7 4.3 0.00 0.00 0.00 53 1016.5
20260510195153 81 270 2.6 2.6 0.00 0.00 0.00 54 1016.9
20260510194535 80 315 1.7 7.0 0.00 0.00 0.00 53 1016.5
20260510193952 79 0 2.6 7.8 0.00 0.00 0.00 53 1016.9
20260510193321 80 45 7.0 7.0 0.00 0.00 0.00 53 1016.9
20260510192731 80 45 1.7 3.5 0.00 0.00 0.00 53 1016.9
20260510192132 80 270 4.3 6.1 0.00 0.00 0.00 53 1016.9
20260510191534 78 135 1.7 6.1 0.00 0.00 0.00 55 1016.9
20260510190926 78 315 0.9 5.2 0.00 0.00 0.00 55 1017.2
20260510190319 77 45 2.6 5.2 0.00 0.00 0.00 54 1017.2
20260510185121 78 315 3.5 7.0 0.00 0.00 0.00 56 1016.9
20260510184544 78 68 5.2 6.1 0.00 0.00 0.00 55 1016.9
20260510183943 78 45 5.2 5.2 0.00 0.00 0.00 55 1016.9
20260510183349 79 23 3.5 5.2 0.00 0.00 0.00 53 1016.9
20260510182738 80 68 3.5 4.3 0.00 0.00 0.00 53 1016.5
20260510182115 80 248 1.7 3.5 0.00 0.00 0.00 54 1016.5
20260510181544 79 0 2.6 3.5 0.00 0.00 0.00 54 1016.5
20260510180934 79 68 2.6 2.6 0.00 0.00 0.00 54 1016.5
20260510180317 79 293 0.9 2.6 0.00 0.00 0.00 54 1016.5
20260510175741 78 315 0.9 1.7 0.00 0.00 0.00 54 1016.5
20260510175152 78 203 1.7 4.3 0.00 0.00 0.00 54 1016.5
20260510173950 79 0 3.5 6.1 0.00 0.00 0.00 52 1016.5
20260510173326 79 23 1.7 3.5 0.00 0.00 0.00 52 1016.5
20260510172724 80 68 3.5 3.5 0.00 0.00 0.00 51 1016.5
20260510172111 79 338 3.5 5.2 0.00 0.00 0.00 51 1016.5
20260510170336 82 293 3.5 5.2 0.00 0.00 0.00 48 1016.5
20260510165751 82 225 2.6 2.6 0.00 0.00 0.00 50 1016.5
20260510164545 81 315 3.5 7.0 0.00 0.00 0.00 51 1016.5
20260510163944 82 293 2.6 3.5 0.00 0.00 0.00 51 1016.5
20260510162724 81 338 4.3 4.3 0.00 0.00 0.00 54 1016.5
20260510161529 80 225 2.6 4.3 0.00 0.00 0.00 54 1016.9
20260510160950 81 135 3.5 7.0 0.00 0.00 0.00 52 1016.9
20260510155736 80 23 3.5 3.5 0.00 0.00 0.00 55 1016.9
20260510155150 80 0 3.5 7.0 0.00 0.00 0.00 57 1016.9
20260510154523 79 158 2.6 4.3 0.00 0.00 0.00 56 1016.9
20260510153949 78 248 1.7 4.3 0.00 0.00 0.00 57 1016.9
20260510153322 78 180 3.5 5.2 0.00 0.00 0.00 57 1017.2
20260510152733 79 23 1.7 2.6 0.00 0.00 0.00 57 1016.9
20260510152149 77 23 2.6 5.2 0.00 0.00 0.00 60 1017.2
20260510151535 76 225 0.9 3.5 0.00 0.00 0.00 61 1017.2
20260510150914 78 270 1.7 4.3 0.00 0.00 0.00 60 1017.2
20260510150339 76 203 4.3 4.3 0.00 0.00 0.00 62 1017.2
20260510145717 76 90 2.6 2.6 0.00 0.00 0.00 64 1017.2
20260510145138 76 180 1.7 3.5 0.00 0.00 0.00 65 1017.6
20260510144510 75 90 0.9 1.7 0.00 0.00 0.00 69 1017.6
20260510143926 74 180 1.7 3.5 0.00 0.00 0.00 69 1017.6
20260510143335 74 158 1.7 1.7 0.00 0.00 0.00 74 1017.6
20260510142713 71 203 1.7 1.7 0.00 0.00 0.00 78 1017.6
20260510142128 69 225 1.7 1.7 0.00 0.00 0.00 83 1017.6
20260510140929 70 338 0.9 1.7 0.00 0.00 0.00 79 1017.6
20260510135715 69 45 1.7 1.7 0.00 0.00 0.00 79 1017.6
20260510135116 70 158 0.0 0.9 0.00 0.00 0.00 82 1017.2
20260510134511 68 113 0.0 0.9 0.00 0.00 0.00 82 1017.2
20260510133348 66 270 0.0 0.0 0.00 0.00 0.00 86 1017.2
20260510132749 66 23 0.0 0.0 0.00 0.00 0.00 86 1017.2
20260510131517 63 203 0.0 0.0 0.00 0.00 0.00 89 1017.2
20260510130920 62 180 1.7 2.6 0.00 0.00 0.00 93 1017.6
20260510130331 61 180 1.7 1.7 0.00 0.00 0.00 95 1017.6
20260510125751 60 225 0.0 1.7 0.00 0.00 0.00 95 1017.6
20260510125144 60 203 0.9 0.9 0.00 0.00 0.00 95 1017.6
20260510123308 58 225 0.0 0.0 0.00 0.00 0.00 98 1017.6
20260510122729 56 203 0.0 0.0 0.00 0.00 0.00 99 1017.6
20260510122133 56 180 0.0 1.7 0.00 0.00 0.00 99 1017.6
20260510121511 55 225 0.0 1.7 0.00 0.00 0.00 99 1017.6
20260510120949 54 203 0.0 0.9 0.00 0.00 0.00 99 1017.2
20260510115743 52 225 0.0 0.0 0.00 0.00 0.00 99 1017.6
20260510114518 51 203 0.0 0.0 0.00 0.00 0.00 99 1017.2
20260510113914 51 270 0.0 0.0 0.00 0.00 0.00 99 1017.2
20260510112710 49 338 0.0 0.0 0.00 0.00 0.00 99 1016.9
20260510112131 49 315 0.0 0.0 0.00 0.00 0.00 99 1016.5
20260510111532 49 203 0.0 0.0 0.00 0.00 0.00 99 1016.9
20260510110933 49 315 0.0 0.9 0.00 0.00 0.00 99 1016.5
20260510110312 49 203 0.0 0.0 0.00 0.00 0.00 99 1016.5
20260510105747 48 225 0.0 0.0 0.00 0.00 0.00 99 1016.5
20260510105143 48 0 0.0 0.0 0.00 0.00 0.00 99 1016.5
20260510103934 48 293 0.0 0.0 0.00 0.00 0.00 99 1016.2
20260510103324 48 293 0.0 0.0 0.00 0.00 0.00 99 1016.2
20260510102717 48 0 0.0 0.9 0.00 0.00 0.00 99 1016.2
20260510102142 48 270 0.0 0.0 0.00 0.00 0.00 99 1016.2
20260510101510 48 225 0.0 0.0 0.00 0.00 0.00 99 1016.2
20260510100351 48 248 0.0 0.0 0.00 0.00 0.00 99 1015.9
20260510095710 48 270 0.0 0.0 0.00 0.00 0.00 99 1015.9
20260510095139 48 270 0.0 0.0 0.00 0.00 0.00 99 1015.9
20260510094539 48 203 0.0 0.0 0.00 0.00 0.00 99 1015.5
20260510093908 47 225 0.0 0.0 0.00 0.00 0.00 99 1015.5
20260510093327 48 225 0.0 0.0 0.00 0.00 0.00 99 1015.5
20260510092725 48 158 0.0 0.0 0.00 0.00 0.00 99 1015.5
20260510092129 48 203 0.0 0.0 0.00 0.00 0.00 99 1015.5
20260510091537 48 0 0.0 0.0 0.00 0.00 0.00 99 1015.5
20260510090909 48 270 0.0 0.0 0.00 0.00 0.00 99 1015.5
20260510090341 48 203 0.0 0.0 0.00 0.00 0.00 99 1015.5
20260510085716 48 180 0.0 0.0 0.00 0.00 0.00 99 1015.2
20260510083948 48 270 0.0 0.0 0.00 0.00 0.00 99 1015.2
20260510083352 49 203 0.0 0.0 0.00 0.00 0.00 99 1015.2
20260510082744 48 225 0.0 0.0 0.00 0.00 0.00 99 1015.2
20260510082119 48 293 0.0 0.0 0.00 0.00 0.00 99 1015.2
20260510081549 48 270 0.0 0.0 0.00 0.00 0.00 99 1015.2
20260510080918 48 248 0.0 0.0 0.00 0.00 0.00 99 1015.2
20260510080327 49 203 0.0 0.0 0.00 0.00 0.00 99 1015.2
20260510075750 48 248 0.0 0.0 0.00 0.00 0.00 99 1015.2
20260510074542 48 225 0.0 0.0 0.00 0.00 0.00 99 1015.2
20260510073942 48 270 0.0 0.0 0.00 0.00 0.00 99 1014.9
20260510073347 48 293 0.0 0.0 0.00 0.00 0.00 99 1015.2
20260510072734 49 248 0.0 0.0 0.00 0.00 0.00 99 1014.9
20260510072126 49 270 0.0 0.0 0.00 0.00 0.00 99 1014.9
20260510071546 48 293 0.0 0.0 0.00 0.00 0.00 99 1014.9
20260510070925 49 203 0.0 0.0 0.00 0.00 0.00 99 1014.9
20260510070312 49 270 0.0 0.0 0.00 0.00 0.00 99 1014.9
20260510065734 49 315 0.0 0.0 0.00 0.00 0.00 99 1014.9
20260510065141 49 248 0.0 0.0 0.00 0.00 0.00 99 1014.9
20260510063923 49 293 0.0 0.0 0.00 0.00 0.00 99 1014.9
20260510063330 49 315 0.0 0.0 0.00 0.00 0.00 99 1014.9
20260510062709 50 0 0.0 0.0 0.00 0.00 0.00 99 1014.9
20260510062146 50 225 0.0 0.0 0.00 0.00 0.00 99 1014.9
20260510061534 50 270 0.0 0.0 0.00 0.00 0.00 99 1014.9
20260510060949 50 158 1.7 1.7 0.00 0.00 0.00 99 1014.9
20260510060341 50 270 0.0 0.0 0.00 0.00 0.00 99 1014.9
20260510055725 49 338 0.0 0.0 0.00 0.00 0.00 99 1015.2
20260510055118 50 270 0.0 0.0 0.00 0.00 0.00 99 1014.9
20260510054538 50 270 0.0 0.0 0.00 0.00 0.00 99 1015.2
20260510053314 50 315 0.0 0.0 0.00 0.00 0.00 99 1015.2
20260510052149 50 248 0.0 0.0 0.00 0.00 0.00 99 1015.2
20260510051548 50 270 0.0 0.0 0.00 0.00 0.00 99 1015.2
20260510050912 50 248 0.0 0.9 0.00 0.00 0.00 99 1015.2
20260510050332 50 270 0.0 0.0 0.00 0.00 0.00 99 1015.2
20260510045721 50 225 0.0 0.0 0.00 0.00 0.00 99 1015.2
20260510045110 51 248 0.0 0.0 0.00 0.00 0.00 99 1015.2
20260510043931 51 203 0.0 0.0 0.00 0.00 0.00 99 1015.2
20260510043338 51 113 0.0 0.0 0.00 0.00 0.00 99 1015.2
20260510042711 51 203 0.0 0.0 0.00 0.00 0.00 99 1015.2
20260510042145 51 225 0.0 0.0 0.00 0.00 0.00 99 1015.2
20260510041533 52 203 0.0 0.0 0.00 0.00 0.00 99 1015.2
20260510040924 52 270 0.0 0.0 0.00 0.00 0.00 99 1015.2
20260510040343 51 315 0.0 0.0 0.00 0.00 0.00 99 1015.2
20260510035747 52 225 0.0 0.9 0.00 0.00 0.00 99 1015.2
20260510035123 52 225 0.0 0.0 0.00 0.00 0.00 99 1015.2
20260510034541 52 203 0.0 0.0 0.00 0.00 0.00 99 1015.2
20260510033909 52 225 0.0 0.0 0.00 0.00 0.00 99 1015.2
20260510033316 52 225 0.0 0.0 0.00 0.00 0.00 99 1015.2
20260510032752 53 203 0.0 0.9 0.00 0.00 0.00 99 1014.9
20260510032147 53 203 0.0 0.0 0.00 0.00 0.00 99 1014.9
20260510031524 53 225 0.0 0.0 0.00 0.00 0.00 99 1014.9
20260510030919 53 225 0.0 0.0 0.00 0.00 0.00 99 1014.9
20260510030328 53 225 0.0 0.0 0.00 0.00 0.00 99 1014.9
20260510025732 53 225 0.0 0.0 0.00 0.00 0.00 99 1014.5
20260510025122 54 225 0.0 0.0 0.00 0.00 0.00 99 1014.5
20260510023940 54 203 0.0 0.0 0.00 0.00 0.00 99 1014.5
20260510022739 54 225 0.0 0.0 0.00 0.00 0.00 99 1014.2
20260510021510 55 270 0.0 0.0 0.00 0.00 0.00 99 1014.2
20260510020952 55 225 0.0 0.0 0.00 0.00 0.00 99 1013.8
20260510015740 56 248 0.0 0.0 0.00 0.00 0.00 99 1013.8
20260510015143 56 203 0.0 0.0 0.00 0.00 0.00 99 1013.8
20260510014511 57 203 0.0 0.0 0.00 0.00 0.00 99 1013.5
20260510013946 57 203 0.0 0.0 0.00 0.00 0.00 99 1013.5
20260510012725 58 225 0.0 1.7 0.00 0.00 0.00 99 1013.5
20260510012131 58 180 0.9 0.9 0.00 0.00 0.00 99 1013.5
20260510011556 59 203 0.0 0.0 0.00 0.00 0.00 96 1013.2
20260510010951 59 315 0.0 0.9 0.00 0.00 0.00 94 1013.2
20260510010348 59 225 0.0 1.7 0.00 0.00 0.00 95 1013.2
20260510005143 60 203 0.0 0.9 0.00 0.00 0.00 91 1012.8
20260510004550 62 203 0.0 0.0 0.00 0.00 0.00 88 1012.8
20260510003307 63 180 0.0 0.0 0.00 0.00 0.00 85 1012.8
20260510002716 64 315 1.7 1.7 0.00 0.00 0.00 84 1012.8
20260510001511 64 180 2.6 2.6 0.00 0.00 0.00 83 1012.5
20260510000943 66 203 0.9 1.7 0.00 0.00 0.00 79 1012.5
20260510000349 67 225 0.0 1.7 0.00 0.00 0.00 76 1012.5
20260509235710 69 203 0.0 0.9 0.00 0.00 0.00 72 1012.5
20260509235126 70 338 0.9 0.9 0.00 0.00 0.00 67 1012.1
20260509234543 71 23 2.6 2.6 0.00 0.00 0.00 66 1012.1
20260509233949 72 338 0.9 1.7 0.00 0.00 0.00 66 1012.1
20260509233339 72 45 0.9 2.6 0.00 0.00 0.00 65 1012.5
20260509232130 74 270 1.7 1.7 0.00 0.00 0.00 62 1012.1
20260509231509 74 203 0.9 1.7 0.00 0.00 0.00 63 1012.5
20260509230951 74 23 2.6 3.5 0.00 0.00 0.00 62 1012.1
20260509230332 74 113 4.3 4.3 0.00 0.00 0.00 62 1012.1
20260509225146 74 270 1.7 1.7 0.00 0.00 0.00 62 1012.1
20260509224535 74 90 0.9 2.6 0.00 0.00 0.00 62 1012.1
20260509223928 74 315 0.9 3.5 0.00 0.00 0.00 62 1012.1
20260509223343 74 0 2.6 4.3 0.00 0.00 0.00 62 1012.1
20260509222130 72 203 3.5 3.5 0.00 0.00 0.00 64 1012.5
20260509220918 72 45 2.6 4.3 0.00 0.00 0.00 64 1012.5
20260509220326 73 45 0.9 3.5 0.00 0.00 0.00 63 1012.5
20260509215723 74 338 3.5 3.5 0.00 0.00 0.00 62 1012.5
20260509215134 74 270 3.5 3.5 0.00 0.00 0.00 63 1012.5
20260509214520 74 135 3.5 3.5 0.00 0.00 0.00 62 1012.1
20260509213335 72 113 2.6 4.3 0.00 0.00 0.00 65 1012.5
20260509212739 72 225 2.6 2.6 0.00 0.00 0.00 64 1012.5
20260509212145 73 203 3.5 3.5 0.00 0.00 0.00 64 1012.5
20260509211542 72 203 1.7 2.6 0.00 0.00 0.00 65 1012.5
20260509210931 72 293 2.6 2.6 0.00 0.00 0.00 65 1012.5
20260509210318 71 68 2.6 2.6 0.00 0.00 0.00 65 1012.5
20260509205747 72 68 2.6 2.6 0.00 0.00 0.00 64 1012.5
20260509205134 72 23 5.2 6.1 0.00 0.00 0.00 64 1012.5
20260509204537 72 338 4.3 5.2 0.00 0.00 0.00 64 1012.5
20260509203950 72 68 4.3 5.2 0.00 0.00 0.00 64 1012.5